This is the latest recevied weather packets stored in our database for station/object WA6TJQ. If no packets are shown the sender has not sent any weather packets the latest 10 day(s).
| Time | Temp. | Humidity | Pressure | Rain* | Wind** | Luminosity | Snow |
|---|---|---|---|---|---|---|---|
| 1778109277 | 16.11° C | 55% | 1012.3 hPa | 0 mm | - | - | - |
| 1778108977 | 16.67° C | 54% | 1012.2 hPa | 0 mm | - | - | - |
| 1778108677 | 16.67° C | 51% | 1012.3 hPa | 0 mm | - | - | - |
| 1778108377 | 16.67° C | 49% | 1012.2 hPa | 0 mm | - | - | - |
| 1778108077 | 16.67° C | 39% | 1012.2 hPa | 0 mm | - | - | - |
| 1778107777 | 16.67° C | 38% | 1012.3 hPa | 0 mm | - | - | - |
| 1778107477 | 16.67° C | 38% | 1012.4 hPa | 0 mm | - | - | - |
| 1778107177 | 16.67° C | 39% | 1012.3 hPa | 0 mm | - | - | - |
| 1778106876 | 17.22° C | 38% | 1012.5 hPa | 0 mm | - | - | - |
| 1778106576 | 17.22° C | 36% | 1012.6 hPa | 0 mm | - | - | - |
| 1778106276 | 17.22° C | 34% | 1012.6 hPa | 0 mm | - | - | - |
| 1778105976 | 17.78° C | 35% | 1012.5 hPa | 0 mm | - | - | - |
| 1778105677 | 17.78° C | 40% | 1012.6 hPa | 0 mm | - | - | - |
| 1778105376 | 17.78° C | 36% | 1012.6 hPa | 0 mm | - | - | - |
| 1778105076 | 18.33° C | 39% | 1012.7 hPa | 0 mm | - | - | - |
| 1778104776 | 18.33° C | 36% | 1012.7 hPa | 0 mm | - | - | - |
| 1778104476 | 18.33° C | 39% | 1012.7 hPa | 0 mm | - | - | - |
| 1778104176 | 18.33° C | 36% | 1012.7 hPa | 0 mm | - | - | - |
| 1778103876 | 18.33° C | 41% | 1012.7 hPa | 0 mm | - | - | - |
| 1778103576 | 18.33° C | 41% | 1012.8 hPa | 0 mm | - | - | - |
| 1778103276 | 17.78° C | 40% | 1012.9 hPa | 0 mm | - | - | - |
| 1778102976 | 17.78° C | 39% | 1013 hPa | 0 mm | - | - | - |
| 1778102676 | 17.78° C | 42% | 1012.9 hPa | 0 mm | - | - | - |
| 1778102376 | 17.78° C | 40% | 1013 hPa | 0 mm | - | - | - |
| 1778102076 | 17.78° C | 39% | 1013 hPa | 0 mm | - | - | - |
* Rain latest hour (hover to see other rain measurements)
** Current wind speed in m/s (hover to see current wind gust speed)